| time (UTC) | temp F | wind direction | speed MPH | gust MPH | rain 1hr in | rain 24hr in | rain mn in | humidity % | barometer mb |
| 20260902223034 | 54 | 74 | 4.0 | 7.0 | 0.00 | 0.00 | 0.00 | 64 | 1008.7 |
| 20260902221531 | 53 | 71 | 4.0 | 9.0 | 0.00 | 0.00 | 0.00 | 69 | 1008.8 |
| 20260902220031 | 52 | 174 | 2.0 | 7.0 | 0.00 | 0.00 | 0.00 | 69 | 1008.8 |
| 20260902214522 | 50 | 69 | 3.0 | 9.0 | 0.00 | 0.00 | 0.00 | 74 | 1008.7 |
| 20260902213017 | 49 | 109 | 4.0 | 9.0 | 0.00 | 0.00 | 0.00 | 75 | 1008.6 |
| 20260902211517 | 48 | 104 | 5.0 | 7.0 | 0.00 | 0.00 | 0.00 | 77 | 1008.6 |
| 20260902210010 | 46 | 73 | 3.0 | 7.0 | 0.00 | 0.00 | 0.00 | 79 | 1008.5 |
| 20260902204510 | 46 | 71 | 4.0 | 5.0 | 0.00 | 0.00 | 0.00 | 80 | 1008.6 |
| 20260902203005 | 45 | 90 | 1.0 | 5.0 | 0.00 | 0.00 | 0.00 | 82 | 1008.5 |
| 20260902201502 | 44 | 113 | 3.0 | 5.0 | 0.00 | 0.00 | 0.00 | 83 | 1008.3 |
| 20260902200058 | 43 | 86 | 2.0 | 5.0 | 0.00 | 0.00 | 0.00 | 84 | 1008.0 |
| 20260902194554 | 42 | 128 | 2.0 | 5.0 | 0.00 | 0.00 | 0.00 | 87 | 1007.8 |
| 20260902193051 | 41 | 79 | 0.0 | 4.0 | 0.00 | 0.00 | 0.00 | 88 | 1007.7 |
| 20260902191550 | 39 | 18 | 1.0 | 3.0 | 0.00 | 0.00 | 0.00 | 90 | 1007.6 |
| 20260902190045 | 38 | 132 | 2.0 | 4.0 | 0.00 | 0.00 | 0.00 | 91 | 1007.1 |
| 20260902184543 | 37 | 110 | 3.0 | 4.0 | 0.00 | 0.00 | 0.00 | 90 | 1006.9 |
| 20260902183042 | 37 | 108 | 2.0 | 5.0 | 0.00 | 0.00 | 0.00 | 91 | 1006.7 |
| 20260902181543 | 36 | 275 | 1.0 | 3.0 | 0.00 | 0.00 | 0.00 | 93 | 1006.5 |
| 20260902180044 | 35 | 111 | 0.0 | 2.0 | 0.00 | 0.00 | 0.00 | 94 | 1006.2 |
| 20260902174535 | 34 | 101 | 0.0 | 3.0 | 0.00 | 0.00 | 0.00 | 94 | 1006.0 |
| 20260902173035 | 33 | 19 | 0.0 | 2.0 | 0.00 | 0.00 | 0.00 | 94 | 1005.8 |
| 20260902171532 | 33 | 19 | 0.0 | 2.0 | 0.00 | 0.00 | 0.00 | 94 | 1005.6 |
| 20260902170030 | 32 | 73 | 0.0 | 2.0 | 0.00 | 0.00 | 0.00 | 94 | 1005.4 |
| 20260902164528 | 32 | 71 | 3.0 | 6.0 | 0.00 | 0.00 | 0.00 | 95 | 1005.1 |
| 20260902163109 | 31 | 90 | 1.0 | 3.0 | 0.00 | 0.00 | 0.00 | 95 | 1005.0 |
| 20260902161537 | 30 | 108 | 2.0 | 4.0 | 0.00 | 0.00 | 0.00 | 94 | 1004.8 |
| 20260902160021 | 30 | 124 | 1.0 | 2.0 | 0.00 | 0.00 | 0.00 | 94 | 1004.9 |
| 20260902154520 | 30 | 121 | 0.0 | 2.0 | 0.00 | 0.00 | 0.00 | 94 | 1004.7 |
| 20260902153017 | 30 | 121 | 0.0 | 2.0 | 0.00 | 0.00 | 0.00 | 93 | 1004.5 |
| 20260902151514 | 29 | 121 | 0.0 | 2.0 | 0.00 | 0.00 | 0.00 | 93 | 1004.3 |
| 20260902150012 | 29 | 19 | 1.0 | 3.0 | 0.00 | 0.00 | 0.00 | 93 | 1004.1 |
| 20260902144511 | 29 | 19 | 1.0 | 3.0 | 0.00 | 0.00 | 0.00 | 93 | 1004.1 |
| 20260902143008 | 29 | 19 | 3.0 | 4.0 | 0.00 | 0.00 | 0.00 | 93 | 1003.9 |
| 20260902141503 | 29 | 35 | 2.0 | 4.0 | 0.00 | 0.00 | 0.00 | 92 | 1003.7 |
| 20260902140004 | 29 | 66 | 2.0 | 7.0 | 0.00 | 0.00 | 0.00 | 92 | 1003.6 |
| 20260902134602 | 30 | 57 | 3.0 | 5.0 | 0.00 | 0.00 | 0.00 | 91 | 1003.6 |
| 20260902133100 | 30 | 40 | 1.0 | 3.0 | 0.00 | 0.00 | 0.00 | 92 | 1003.4 |
| 20260902131554 | 30 | 63 | 2.0 | 5.0 | 0.00 | 0.00 | 0.00 | 92 | 1003.3 |
| 20260902130052 | 31 | 73 | 2.0 | 4.0 | 0.00 | 0.00 | 0.00 | 91 | 1003.3 |
| 20260902124553 | 31 | 54 | 3.0 | 6.0 | 0.00 | 0.00 | 0.00 | 91 | 1003.2 |
| 20260902123047 | 31 | 76 | 1.0 | 4.0 | 0.00 | 0.00 | 0.00 | 90 | 1002.9 |
| 20260902121544 | 32 | 30 | 1.0 | 2.0 | 0.00 | 0.00 | 0.00 | 89 | 1003.0 |
| 20260902120044 | 32 | 30 | 1.0 | 3.0 | 0.00 | 0.00 | 0.00 | 89 | 1002.8 |
| 20260902114604 | 32 | 30 | 0.0 | 0.0 | 0.00 | 0.00 | 0.00 | 89 | 1002.8 |
| 20260902113050 | 33 | 30 | 0.0 | 0.0 | 0.00 | 0.00 | 0.00 | 88 | 1003.0 |
| 20260902111535 | 33 | 34 | 0.0 | 0.0 | 0.00 | 0.00 | 0.00 | 87 | 1003.0 |
| 20260902110039 | 34 | 34 | 1.0 | 3.0 | 0.00 | 0.00 | 0.00 | 87 | 1002.9 |
| 20260902104537 | 34 | 46 | 1.0 | 5.0 | 0.00 | 0.00 | 0.00 | 87 | 1002.9 |
| 20260902103028 | 35 | 84 | 3.0 | 6.0 | 0.00 | 0.00 | 0.00 | 87 | 1002.8 |
| 20260902101525 | 35 | 47 | 2.0 | 4.0 | 0.00 | 0.00 | 0.00 | 86 | 1002.8 |
| 20260902100023 | 36 | 47 | 1.0 | 3.0 | 0.00 | 0.00 | 0.00 | 85 | 1002.8 |
| 20260902094520 | 36 | 58 | 3.0 | 4.0 | 0.00 | 0.00 | 0.00 | 85 | 1002.8 |
| 20260902093018 | 37 | 20 | 1.0 | 3.0 | 0.00 | 0.00 | 0.00 | 83 | 1002.8 |
| 20260902091514 | 37 | 19 | 0.0 | 2.0 | 0.00 | 0.00 | 0.00 | 83 | 1002.8 |
| 20260902090012 | 38 | 51 | 1.0 | 3.0 | 0.00 | 0.00 | 0.00 | 81 | 1002.6 |
| 20260902084521 | 39 | 50 | 2.0 | 8.0 | 0.00 | 0.00 | 0.00 | 81 | 1002.7 |
| 20260902083006 | 39 | 71 | 4.0 | 8.0 | 0.00 | 0.00 | 0.00 | 80 | 1002.7 |
| 20260902081503 | 40 | 68 | 3.0 | 8.0 | 0.00 | 0.00 | 0.00 | 80 | 1002.6 |
| 20260902080001 | 41 | 93 | 4.0 | 6.0 | 0.00 | 0.00 | 0.00 | 78 | 1002.7 |
| 20260902074612 | 42 | 76 | 4.0 | 7.0 | 0.00 | 0.00 | 0.00 | 77 | 1002.6 |
| 20260902073105 | 43 | 63 | 3.0 | 7.0 | 0.00 | 0.00 | 0.00 | 76 | 1002.6 |
| 20260902071602 | 43 | 75 | 4.0 | 6.0 | 0.00 | 0.00 | 0.00 | 74 | 1002.6 |
| 20260902070055 | 44 | 74 | 3.0 | 4.0 | 0.00 | 0.00 | 0.00 | 73 | 1002.5 |
| 20260902064555 | 45 | 17 | 1.0 | 4.0 | 0.00 | 0.00 | 0.00 | 70 | 1002.5 |
| 20260902063057 | 46 | 55 | 1.0 | 7.0 | 0.00 | 0.00 | 0.00 | 67 | 1002.1 |
| 20260902061556 | 47 | 287 | 3.0 | 5.0 | 0.00 | 0.00 | 0.00 | 64 | 1002.0 |
| 20260902060059 | 48 | 287 | 1.0 | 4.0 | 0.00 | 0.00 | 0.00 | 63 | 1002.1 |
| 20260902054552 | 49 | 287 | 2.0 | 3.0 | 0.00 | 0.00 | 0.00 | 60 | 1002.1 |
| 20260902053101 | 49 | 287 | 1.0 | 3.0 | 0.00 | 0.00 | 0.00 | 57 | 1002.1 |
| 20260902051555 | 50 | 287 | 0.0 | 3.0 | 0.00 | 0.00 | 0.00 | 56 | 1002.2 |
| 20260902050051 | 51 | 287 | 1.0 | 2.0 | 0.00 | 0.00 | 0.00 | 53 | 1002.1 |
| 20260902044550 | 52 | 287 | 0.0 | 2.0 | 0.00 | 0.00 | 0.00 | 52 | 1002.1 |
| 20260902043055 | 53 | 287 | 1.0 | 2.0 | 0.00 | 0.00 | 0.00 | 50 | 1002.1 |
| 20260902041549 | 54 | 287 | 0.0 | 0.0 | 0.00 | 0.00 | 0.00 | 48 | 1002.0 |
| 20260902040050 | 54 | 287 | 0.0 | 0.0 | 0.00 | 0.00 | 0.00 | 47 | 1002.0 |
| 20260902034602 | 55 | 287 | 0.0 | 2.0 | 0.00 | 0.00 | 0.00 | 48 | 1002.0 |
| 20260902033054 | 55 | 287 | 0.0 | 1.0 | 0.00 | 0.00 | 0.00 | 46 | 1002.0 |
| 20260902031550 | 56 | 287 | 1.0 | 3.0 | 0.00 | 0.00 | 0.00 | 49 | 1002.0 |
| 20260902030046 | 56 | 287 | 1.0 | 2.0 | 0.00 | 0.00 | 0.00 | 46 | 1002.1 |
| 20260902024546 | 57 | 287 | 2.0 | 3.0 | 0.00 | 0.00 | 0.00 | 46 | 1002.1 |
| 20260902023049 | 57 | 287 | 2.0 | 3.0 | 0.00 | 0.00 | 0.00 | 46 | 1002.1 |
| 20260902021545 | 57 | 287 | 0.0 | 2.0 | 0.00 | 0.00 | 0.00 | 47 | 1002.2 |
| 20260902020054 | 57 | 287 | 2.0 | 3.0 | 0.00 | 0.00 | 0.00 | 45 | 1002.1 |
| 20260902014544 | 58 | 287 | 1.0 | 3.0 | 0.00 | 0.00 | 0.00 | 51 | 1002.1 |
| 20260902013044 | 58 | 287 | 1.0 | 4.0 | 0.00 | 0.00 | 0.00 | 50 | 1002.1 |
| 20260902011543 | 58 | 287 | 1.0 | 2.0 | 0.00 | 0.00 | 0.00 | 46 | 1002.2 |
| 20260902010042 | 59 | 287 | 1.0 | 4.0 | 0.00 | 0.00 | 0.00 | 50 | 1002.2 |
| 20260902004542 | 59 | 287 | 5.0 | 7.0 | 0.00 | 0.00 | 0.00 | 46 | 1002.2 |
| 20260902003041 | 58 | 11 | 2.0 | 4.0 | 0.00 | 0.00 | 0.00 | 52 | 1002.2 |
| 20260902001551 | 57 | 17 | 2.0 | 4.0 | 0.00 | 0.00 | 0.00 | 48 | 1002.3 |
| 20260902000044 | 57 | 22 | 1.0 | 3.0 | 0.00 | 0.00 | 0.00 | 48 | 1002.4 |
| 20260901234540 | 57 | 19 | 1.0 | 7.0 | 0.00 | 0.00 | 0.00 | 46 | 1002.5 |
| 20260901233055 | 58 | 18 | 0.0 | 5.0 | 0.00 | 0.00 | 0.00 | 49 | 1002.5 |
| 20260901231538 | 59 | 97 | 1.0 | 7.0 | 0.00 | 0.00 | 0.00 | 46 | 1002.5 |
| 20260901230037 | 60 | 19 | 4.0 | 7.0 | 0.00 | 0.00 | 0.00 | 43 | 1002.5 |
| 20260901224531 | 58 | 355 | 3.0 | 11.0 | 0.00 | 0.00 | 0.00 | 46 | 1002.8 |